If you wish to contribute or participate in the discussions about articles you are invited to join SKYbrary as a registered user

DNEN

From SKYbrary Wiki

Jump to: navigation, search
Airport
ICAO: DNEN
Summary
Name Enugu
Region Africa
Territory Nigeria NG.gif
Location Enugu
Main city served
Elevation
Coordinates 6° 28' 32" N, 7° 33' 43" E
More airports
in DN
DNAA, DNEN, DNMM, DNPO
Runways
Designator Length Width Surface
8/26 2402 m7,880.577 ft 45 m147.638 ft ASP


METAR
Observation DNEN 141600Z 23008KT 9999 BKN012 FEW020CB 32/23 Q1011 NOSIG
Station Enugu
Elevation 137 metres
Date/Time 14 October 2014 16:00:00
Wind direction 230°
Wind speed 08 kts
Clouds broken clouds
Clouds code BKN
Temperature 32°C
Dew point 23°C
Humidity 59%
QNH 1011 hPa
Weather condition n/a


Enugu International Airport

ICAO: DNEN IATA: ENU

Description

Akanu Ibiam International Airport, also known as Enugu Airport, is an airport serving Enugu, a city in the Enugu State of Nigeria.

Climatology

Tropical Savanna climate (Köppen climate classification Aw)

Maps

Terrain

Loading map...

Airport Layout

Loading map...


Accidents & Serious Incidents at or in vicinity of DNEN

None on SKYbrary

Personal tools